| time (UTC) | temp F | wind direction | speed MPH | gust MPH | rain 1hr in | rain 24hr in | rain mn in | humidity % | barometer mb |
| 20260508012805 | 54 | 280 | 3.0 | 9.0 | 0.00 | 0.02 | 0.01 | 42 | 1008.9 |
| 20260508012307 | 53 | 166 | 2.0 | 12.0 | 0.00 | 0.02 | 0.01 | 42 | 1008.8 |
| 20260508011804 | 53 | 156 | 3.0 | 12.0 | 0.00 | 0.02 | 0.01 | 36 | 1013.0 |
| 20260508011305 | 55 | 243 | 3.0 | 8.0 | 0.00 | 0.02 | 0.01 | 42 | 1008.8 |
| 20260508010805 | 52 | 182 | 2.0 | 5.0 | 0.00 | 0.02 | 0.01 | 42 | 1008.6 |
| 20260508010306 | 54 | 29 | 3.0 | 8.0 | 0.00 | 0.02 | 0.01 | 42 | 1008.7 |
| 20260508005805 | 62 | 248 | 2.0 | 5.0 | 0.00 | 0.02 | 0.01 | 42 | 1008.7 |
| 20260508005306 | 62 | 213 | 2.0 | 9.0 | 0.00 | 0.02 | 0.01 | 42 | 1008.7 |
| 20260508004805 | 63 | 177 | 1.0 | 9.0 | 0.00 | 0.02 | 0.01 | 42 | 1008.7 |
| 20260508004305 | 62 | 239 | 2.0 | 9.0 | 0.00 | 0.02 | 0.01 | 41 | 1008.8 |
| 20260508003805 | 62 | 198 | 3.0 | 14.0 | 0.00 | 0.02 | 0.01 | 41 | 1008.7 |
| 20260508003305 | 62 | 179 | 5.0 | 14.0 | 0.00 | 0.02 | 0.01 | 39 | 1008.8 |
| 20260508002805 | 62 | 257 | 2.0 | 8.0 | 0.00 | 0.02 | 0.01 | 40 | 1008.7 |
| 20260508002307 | 62 | 291 | 2.0 | 10.0 | 0.00 | 0.02 | 0.01 | 39 | 1008.4 |
| 20260508001305 | 62 | 162 | 11.0 | 23.0 | 0.00 | 0.03 | 0.01 | 37 | 1008.4 |
| 20260508000805 | 63 | 269 | 3.0 | 8.0 | 0.00 | 0.03 | 0.01 | 39 | 1012.8 |
| 20260508000305 | 54 | 189 | 3.0 | 10.0 | 0.00 | 0.03 | 0.01 | 39 | 1008.4 |
| 20260507235805 | 63 | 296 | 5.0 | 18.0 | 0.00 | 0.03 | 0.01 | 38 | 1008.6 |
| 20260507235307 | 62 | 109 | 5.0 | 21.0 | 0.00 | 0.03 | 0.01 | 37 | 1008.5 |
| 20260507234805 | 63 | 228 | 9.0 | 21.0 | 0.00 | 0.04 | 0.01 | 35 | 1012.0 |
| 20260507234305 | 62 | 251 | 6.0 | 21.0 | 0.00 | 0.04 | 0.01 | 36 | 1008.4 |
| 20260507233805 | 63 | 173 | 9.0 | 21.0 | 0.00 | 0.04 | 0.01 | 36 | 1012.3 |
| 20260507233305 | 63 | 217 | 7.0 | 14.0 | 0.00 | 0.05 | 0.01 | 34 | 1008.3 |
| 20260507232805 | 63 | 190 | 5.0 | 23.0 | 0.00 | 0.05 | 0.01 | 33 | 1008.4 |
| 20260507232306 | 62 | 175 | 4.0 | 14.0 | 0.00 | 0.06 | 0.01 | 36 | 1008.4 |
| 20260507231804 | 63 | 114 | 5.0 | 13.0 | 0.00 | 0.06 | 0.01 | 31 | 1008.5 |
| 20260507231305 | 63 | 223 | 4.0 | 16.0 | 0.00 | 0.06 | 0.01 | 38 | 1008.5 |
| 20260507230805 | 54 | 73 | 3.0 | 7.0 | 0.00 | 0.07 | 0.01 | 34 | 1008.6 |
| 20260507225805 | 63 | 199 | 7.0 | 15.0 | 0.00 | 0.08 | 0.01 | 38 | 1008.7 |
| 20260507225306 | 63 | 178 | 4.0 | 16.0 | 0.00 | 0.09 | 0.01 | 34 | 1017.2 |
| 20260507224304 | 62 | 284 | 6.0 | 16.0 | 0.00 | 0.10 | 0.01 | 36 | 1008.6 |
| 20260507223804 | 63 | 147 | 8.0 | 16.0 | 0.00 | 0.10 | 0.01 | 36 | 1008.7 |
| 20260507223305 | 63 | 174 | 4.0 | 14.0 | 0.00 | 0.11 | 0.01 | 36 | 1008.7 |
| 20260507222804 | 63 | 297 | 7.0 | 14.0 | 0.00 | 0.11 | 0.01 | 27 | 1017.8 |
| 20260507222306 | 63 | 95 | 4.0 | 13.0 | 0.00 | 0.12 | 0.01 | 39 | 1008.6 |
| 20260507221805 | 63 | 319 | 6.0 | 13.0 | 0.00 | 0.12 | 0.01 | 40 | 1008.7 |
| 20260507220305 | 63 | 150 | 5.0 | 21.0 | 0.00 | 0.14 | 0.01 | 27 | 1017.8 |
| 20260507215805 | 63 | 212 | 7.0 | 18.0 | 0.00 | 0.15 | 0.01 | 39 | 1008.9 |
| 20260507215306 | 63 | 134 | 4.0 | 18.0 | 0.00 | 0.15 | 0.01 | 31 | 1014.8 |
| 20260507214305 | 53 | 95 | 5.0 | 12.0 | 0.00 | 0.15 | 0.01 | 45 | 1009.2 |
| 20260507213305 | 62 | 108 | 1.0 | 10.0 | 0.00 | 0.15 | 0.01 | 44 | 1009.3 |
| 20260507212805 | 62 | 66 | 5.0 | 12.0 | 0.00 | 0.16 | 0.01 | 44 | 1009.3 |
| 20260507212307 | 62 | 63 | 3.0 | 9.0 | 0.00 | 0.16 | 0.01 | 44 | 1009.4 |
| 20260507211805 | 63 | 82 | 6.0 | 10.0 | 0.00 | 0.16 | 0.01 | 42 | 1009.7 |
| 20260507211305 | 53 | 175 | 2.0 | 16.0 | 0.00 | 0.16 | 0.01 | 39 | 1009.5 |
| 20260507210804 | 63 | 152 | 6.0 | 16.0 | 0.00 | 0.16 | 0.01 | 32 | 1013.9 |
| 20260507210305 | 63 | 174 | 4.0 | 13.0 | 0.00 | 0.16 | 0.01 | 39 | 1009.6 |
| 20260507205306 | 61 | 165 | 6.0 | 16.0 | 0.00 | 0.16 | 0.01 | 39 | 1009.6 |
| 20260507204804 | 61 | 171 | 6.0 | 12.0 | 0.00 | 0.16 | 0.01 | 39 | 1009.6 |
| 20260507204306 | 61 | 231 | 2.0 | 10.0 | 0.00 | 0.17 | 0.01 | 40 | 1009.6 |
| 20260507203805 | 61 | 155 | 2.0 | 10.0 | 0.00 | 0.17 | 0.01 | 39 | 1009.8 |
| 20260507202306 | 53 | 216 | 3.0 | 13.0 | 0.00 | 0.17 | 0.01 | 40 | 1010.0 |
| 20260507201804 | 61 | 23 | 6.0 | 16.0 | 0.00 | 0.18 | 0.01 | 40 | 1010.2 |
| 20260507201304 | 61 | 156 | 7.0 | 21.0 | 0.00 | 0.18 | 0.01 | 40 | 1010.2 |
| 20260507200805 | 61 | 125 | 7.0 | 13.0 | 0.00 | 0.18 | 0.01 | 39 | 1010.1 |
| 20260507200304 | 61 | 180 | 5.0 | 12.0 | 0.00 | 0.18 | 0.01 | 40 | 1009.9 |
| 20260507195306 | 57 | 187 | 8.0 | 21.0 | 0.00 | 0.18 | 0.01 | 41 | 1020.3 |
| 20260507194304 | 57 | 164 | 7.0 | 29.0 | 0.01 | 0.19 | 0.01 | 41 | 1010.2 |
| 20260507193804 | 57 | 159 | 10.0 | 22.0 | 0.01 | 0.19 | 0.01 | 41 | 1010.2 |
| 20260507193304 | 57 | 190 | 6.0 | 17.0 | 0.01 | 0.19 | 0.01 | 41 | 1010.3 |
| 20260507191804 | 57 | 196 | 7.0 | 22.0 | 0.01 | 0.20 | 0.01 | 43 | 1010.6 |
| 20260507191305 | 57 | 180 | 10.0 | 22.0 | 0.01 | 0.20 | 0.01 | 47 | 1010.6 |
| 20260507190805 | 57 | 186 | 9.0 | 23.0 | 0.01 | 0.20 | 0.01 | 43 | 1014.3 |
| 20260507190304 | 52 | 171 | 5.0 | 21.0 | 0.01 | 0.20 | 0.01 | 43 | 1010.6 |
| 20260507185805 | 52 | 164 | 10.0 | 20.0 | 0.01 | 0.20 | 0.01 | 41 | 1010.7 |
| 20260507185306 | 51 | 200 | 5.0 | 12.0 | 0.01 | 0.20 | 0.01 | 44 | 1010.5 |
| 20260507184806 | 51 | 246 | 6.0 | 12.0 | 0.01 | 0.21 | 0.01 | 42 | 1010.8 |
| 20260507183306 | 51 | 165 | 3.0 | 15.0 | 0.00 | 0.20 | 0.01 | 46 | 1010.8 |
| 20260507182806 | 50 | 198 | 7.0 | 20.0 | 0.00 | 0.20 | 0.01 | 46 | 1010.9 |
| 20260507181806 | 50 | 159 | 11.0 | 23.0 | 0.00 | 0.20 | 0.01 | 46 | 1010.9 |
| 20260507181306 | 50 | 168 | 10.0 | 17.0 | 0.00 | 0.20 | 0.01 | 45 | 1011.2 |
| 20260507180806 | 48 | 199 | 9.0 | 17.0 | 0.00 | 0.20 | 0.01 | 45 | 1015.8 |
| 20260507180306 | 50 | 159 | 5.0 | 13.0 | 0.00 | 0.24 | 0.01 | 40 | 1011.1 |
| 20260507175806 | 48 | 170 | 5.0 | 13.0 | 0.00 | 0.24 | 0.01 | 45 | 1011.2 |
| 20260507175307 | 48 | 171 | 3.0 | 12.0 | 0.00 | 0.24 | 0.01 | 46 | 1011.2 |
| 20260507174806 | 48 | 157 | 5.0 | 12.0 | 0.00 | 0.24 | 0.01 | 42 | 1021.3 |
| 20260507174306 | 48 | 173 | 4.0 | 12.0 | 0.00 | 0.24 | 0.01 | 49 | 1011.3 |
| 20260507173805 | 48 | 160 | 5.0 | 9.0 | 0.00 | 0.24 | 0.01 | 48 | 1011.4 |
| 20260507173306 | 48 | 204 | 4.0 | 12.0 | 0.00 | 0.24 | 0.01 | 39 | 1011.5 |
| 20260507172806 | 48 | 158 | 5.0 | 10.0 | 0.00 | 0.25 | 0.01 | 49 | 1011.4 |
| 20260507172307 | 48 | 179 | 3.0 | 9.0 | 0.00 | 0.25 | 0.01 | 49 | 1020.9 |
| 20260507171805 | 48 | 163 | 3.0 | 9.0 | 0.00 | 0.25 | 0.01 | 45 | 1011.4 |
| 20260507171305 | 48 | 185 | 3.0 | 9.0 | 0.00 | 0.25 | 0.01 | 45 | 1021.1 |
| 20260507170805 | 48 | 136 | 6.0 | 9.0 | 0.00 | 0.25 | 0.01 | 45 | 1011.3 |
| 20260507165805 | 45 | 193 | 3.0 | 7.0 | 0.00 | 0.28 | 0.01 | 46 | 1011.6 |
| 20260507165306 | 44 | 211 | 3.0 | 7.0 | 0.00 | 0.28 | 0.01 | 49 | 1011.6 |
| 20260507164805 | 44 | 199 | 3.0 | 9.0 | 0.01 | 0.28 | 0.01 | 48 | 1011.8 |
| 20260507164306 | 45 | 197 | 2.0 | 9.0 | 0.01 | 0.28 | 0.01 | 47 | 1011.8 |
| 20260507163806 | 44 | 217 | 1.0 | 7.0 | 0.01 | 0.28 | 0.01 | 46 | 1011.9 |
| 20260507163305 | 43 | 51 | 4.0 | 7.0 | 0.01 | 0.28 | 0.01 | 47 | 1019.0 |
| 20260507162805 | 43 | 74 | 3.0 | 5.0 | 0.01 | 0.28 | 0.01 | 46 | 1011.9 |
| 20260507162307 | 43 | 195 | 2.0 | 5.0 | 0.01 | 0.28 | 0.01 | 50 | 1017.6 |
| 20260507161805 | 43 | 51 | 3.0 | 5.0 | 0.01 | 0.28 | 0.01 | 47 | 1011.8 |
| 20260507161305 | 42 | 258 | 2.0 | 5.0 | 0.01 | 0.28 | 0.01 | 48 | 1012.1 |
| 20260507160805 | 43 | 61 | 1.0 | 5.0 | 0.01 | 0.28 | 0.01 | 48 | 1012.2 |
| 20260507155805 | 40 | 231 | 2.0 | 5.0 | 0.01 | 0.28 | 0.01 | 51 | 1012.4 |
| 20260507155307 | 38 | 185 | 2.0 | 7.0 | 0.00 | 0.27 | 0.00 | 53 | 1012.7 |
| 20260507154304 | 38 | 108 | 2.0 | 3.0 | 0.00 | 0.27 | 0.00 | 55 | 1012.8 |
| 20260507153806 | 36 | 86 | 1.0 | 8.0 | 0.00 | 0.27 | 0.00 | 53 | 1012.9 |
| 20260507153305 | 38 | 21 | 3.0 | 5.0 | 0.00 | 0.27 | 0.00 | 53 | 1024.7 |
| 20260507152306 | 38 | 70 | 3.0 | 6.0 | 0.00 | 0.27 | 0.00 | 57 | 1013.2 |
| 20260507151804 | 33 | 38 | 4.0 | 6.0 | 0.00 | 0.27 | 0.00 | 59 | 1013.3 |
| 20260507150804 | 38 | 62 | 1.0 | 2.0 | 0.00 | 0.27 | 0.00 | 60 | 1013.5 |
| 20260507150304 | 37 | 54 | 1.0 | 2.0 | 0.00 | 0.27 | 0.00 | 55 | 1013.5 |
| 20260507145306 | 30 | 28 | 1.0 | 5.0 | 0.00 | 0.27 | 0.00 | 66 | 1013.6 |
| 20260507144804 | 30 | 60 | 2.0 | 3.0 | 0.00 | 0.27 | 0.00 | 66 | 1013.6 |
| 20260507144304 | 30 | 22 | 2.0 | 3.0 | 0.00 | 0.27 | 0.00 | 67 | 1013.6 |
| 20260507143303 | 29 | 224 | 0.0 | 1.0 | 0.00 | 0.27 | 0.00 | 68 | 1013.7 |
| 20260507142804 | 29 | 257 | 0.0 | 2.0 | 0.00 | 0.27 | 0.00 | 69 | 1013.5 |
| 20260507142306 | 29 | 242 | 1.0 | 5.0 | 0.00 | 0.27 | 0.00 | 70 | 1013.6 |
| 20260507141804 | 29 | 205 | 0.0 | 2.0 | 0.00 | 0.27 | 0.00 | 70 | 1025.3 |
| 20260507141304 | 28 | 355 | 1.0 | 2.0 | 0.00 | 0.27 | 0.00 | 70 | 1013.7 |
| 20260507140805 | 29 | 60 | 0.0 | 5.0 | 0.00 | 0.27 | 0.00 | 71 | 1013.7 |
| 20260507140305 | 27 | 47 | 3.0 | 5.0 | 0.00 | 0.27 | 0.00 | 70 | 1025.1 |
| 20260507135804 | 27 | 46 | 2.0 | 3.0 | 0.00 | 0.28 | 0.00 | 71 | 1013.6 |
| 20260507135306 | 27 | 336 | 1.0 | 5.0 | 0.00 | 0.28 | 0.00 | 71 | 1013.9 |
| 20260507134803 | 27 | 55 | 3.0 | 5.0 | 0.00 | 0.28 | 0.00 | 72 | 1013.7 |
| 20260507134304 | 26 | 48 | 2.0 | 5.0 | 0.00 | 0.28 | 0.00 | 83 | 1013.5 |
| 20260507133804 | 26 | 41 | 3.0 | 5.0 | 0.00 | 0.28 | 0.00 | 73 | 1013.6 |
| 20260507133304 | 26 | 61 | 3.0 | 5.0 | 0.00 | 0.28 | 0.00 | 74 | 1013.7 |
| 20260507132805 | 26 | 68 | 3.0 | 6.0 | 0.00 | 0.28 | 0.00 | 74 | 1013.6 |
| 20260507132307 | 25 | 61 | 3.0 | 5.0 | 0.00 | 0.28 | 0.00 | 76 | 1013.8 |
| 20260507131805 | 24 | 63 | 3.0 | 5.0 | 0.00 | 0.28 | 0.00 | 75 | 1013.5 |
| 20260507130803 | 24 | 69 | 4.0 | 9.0 | 0.00 | 0.28 | 0.00 | 76 | 1013.7 |
| 20260507130304 | 24 | 47 | 5.0 | 6.0 | 0.00 | 0.28 | 0.00 | 77 | 1013.7 |
| 20260507125804 | 24 | 54 | 3.0 | 9.0 | 0.00 | 0.31 | 0.00 | 82 | 1013.6 |
| 20260507125307 | 24 | 62 | 4.0 | 9.0 | 0.00 | 0.31 | 0.00 | 77 | 1013.5 |
| 20260507124804 | 23 | 48 | 4.0 | 8.0 | 0.00 | 0.31 | 0.00 | 77 | 1013.5 |
| 20260507123805 | 23 | 63 | 3.0 | 8.0 | 0.00 | 0.31 | 0.00 | 77 | 1013.3 |
| 20260507123304 | 24 | 61 | 4.0 | 8.0 | 0.00 | 0.31 | 0.00 | 77 | 1023.0 |
| 20260507122804 | 23 | 25 | 3.0 | 8.0 | 0.00 | 0.31 | 0.00 | 78 | 1013.3 |
| 20260507122307 | 23 | 49 | 5.0 | 8.0 | 0.00 | 0.31 | 0.00 | 77 | 1024.2 |
| 20260507121804 | 23 | 25 | 2.0 | 7.0 | 0.00 | 0.31 | 0.00 | 77 | 1013.4 |
| 20260507121304 | 23 | 57 | 5.0 | 8.0 | 0.00 | 0.31 | 0.00 | 80 | 1013.3 |
| 20260507120805 | 22 | 61 | 5.0 | 9.0 | 0.00 | 0.31 | 0.00 | 79 | 1013.3 |
| 20260507120303 | 22 | 69 | 6.0 | 8.0 | 0.00 | 0.31 | 0.00 | 80 | 1013.3 |
| 20260507115307 | 22 | 57 | 5.0 | 9.0 | 0.00 | 0.34 | 0.00 | 79 | 1013.6 |
| 20260507114804 | 23 | 74 | 5.0 | 7.0 | 0.00 | 0.37 | 0.00 | 79 | 1013.3 |
| 20260507114305 | 24 | 54 | 4.0 | 6.0 | 0.00 | 0.37 | 0.00 | 80 | 1013.4 |
| 20260507112805 | 24 | 87 | 4.0 | 9.0 | 0.00 | 0.37 | 0.00 | 78 | 1013.5 |
| 20260507112307 | 23 | 67 | 6.0 | 10.0 | 0.00 | 0.37 | 0.00 | 78 | 1013.4 |
| 20260507111804 | 23 | 40 | 3.0 | 8.0 | 0.00 | 0.37 | 0.00 | 78 | 1013.4 |
| 20260507110805 | 23 | 67 | 6.0 | 8.0 | 0.00 | 0.37 | 0.00 | 79 | 1013.3 |
| 20260507110305 | 23 | 69 | 5.0 | 8.0 | 0.00 | 0.37 | 0.00 | 78 | 1013.2 |
| 20260507105803 | 23 | 58 | 5.0 | 8.0 | 0.00 | 0.37 | 0.00 | 79 | 1013.3 |
| 20260507105306 | 24 | 80 | 2.0 | 6.0 | 0.00 | 0.37 | 0.00 | 77 | 1020.7 |
| 20260507104804 | 24 | 59 | 3.0 | 7.0 | 0.00 | 0.37 | 0.00 | 78 | 1012.9 |
| 20260507104304 | 23 | 68 | 5.0 | 8.0 | 0.00 | 0.37 | 0.00 | 77 | 1013.2 |
| 20260507103805 | 24 | 66 | 6.0 | 9.0 | 0.00 | 0.37 | 0.00 | 77 | 1013.3 |
| 20260507103304 | 24 | 72 | 3.0 | 9.0 | 0.00 | 0.37 | 0.00 | 77 | 1013.2 |
| 20260507102804 | 24 | 74 | 5.0 | 9.0 | 0.00 | 0.37 | 0.00 | 78 | 1013.3 |
| 20260507102306 | 23 | 36 | 5.0 | 7.0 | 0.00 | 0.37 | 0.00 | 78 | 1013.2 |
| 20260507101804 | 24 | 58 | 6.0 | 8.0 | 0.00 | 0.37 | 0.00 | 78 | 1013.3 |
| 20260507101304 | 23 | 63 | 4.0 | 8.0 | 0.00 | 0.37 | 0.00 | 77 | 1013.3 |
| 20260507100804 | 24 | 86 | 5.0 | 8.0 | 0.00 | 0.37 | 0.00 | 78 | 1013.3 |
| 20260507100304 | 23 | 68 | 3.0 | 7.0 | 0.00 | 0.37 | 0.00 | 77 | 1013.3 |
| 20260507095306 | 23 | 43 | 3.0 | 8.0 | 0.00 | 0.37 | 0.00 | 77 | 1018.3 |
| 20260507094804 | 24 | 93 | 3.0 | 8.0 | 0.00 | 0.37 | 0.00 | 78 | 1013.2 |
| 20260507094306 | 23 | 69 | 4.0 | 8.0 | 0.00 | 0.37 | 0.00 | 78 | 1013.3 |
| 20260507093805 | 23 | 71 | 5.0 | 8.0 | 0.00 | 0.37 | 0.00 | 79 | 1021.0 |
| 20260507093307 | 23 | 51 | 5.0 | 8.0 | 0.00 | 0.37 | 0.00 | 77 | 1013.3 |
| 20260507092806 | 23 | 64 | 6.0 | 8.0 | 0.00 | 0.37 | 0.00 | 78 | 1013.2 |
| 20260507092307 | 25 | 68 | 4.0 | 6.0 | 0.00 | 0.37 | 0.00 | 78 | 1021.3 |
| 20260507091306 | 23 | 56 | 5.0 | 8.0 | 0.00 | 0.37 | 0.00 | 76 | 1018.3 |
| 20260507090806 | 23 | 60 | 5.0 | 7.0 | 0.00 | 0.37 | 0.00 | 77 | 1013.2 |
| 20260507090306 | 24 | 50 | 4.0 | 8.0 | 0.00 | 0.37 | 0.00 | 76 | 1013.2 |
| 20260507085306 | 24 | 69 | 2.0 | 9.0 | 0.00 | 0.37 | 0.00 | 75 | 1013.2 |
| 20260507084806 | 25 | 42 | 4.0 | 9.0 | 0.00 | 0.37 | 0.00 | 76 | 1013.2 |
| 20260507084307 | 25 | 51 | 5.0 | 7.0 | 0.00 | 0.37 | 0.00 | 74 | 1013.1 |
| 20260507083806 | 26 | 67 | 3.0 | 6.0 | 0.00 | 0.37 | 0.00 | 75 | 1013.1 |
| 20260507083306 | 25 | 63 | 5.0 | 9.0 | 0.00 | 0.37 | 0.00 | 74 | 1013.3 |
| 20260507082806 | 26 | 46 | 4.0 | 9.0 | 0.00 | 0.37 | 0.00 | 75 | 1013.4 |
| 20260507081806 | 26 | 45 | 6.0 | 9.0 | 0.00 | 0.37 | 0.00 | 75 | 1013.5 |
| 20260507080806 | 26 | 20 | 3.0 | 9.0 | 0.00 | 0.37 | 0.00 | 76 | 1020.2 |
| 20260507075806 | 24 | 62 | 5.0 | 7.0 | 0.00 | 0.37 | 0.00 | 75 | 1023.1 |
| 20260507075307 | 25 | 26 | 3.0 | 8.0 | 0.00 | 0.37 | 0.00 | 75 | 1013.5 |
| 20260507074806 | 25 | 15 | 3.0 | 7.0 | 0.00 | 0.37 | 0.00 | 75 | 1013.6 |
| 20260507074306 | 25 | 46 | 3.0 | 7.0 | 0.00 | 0.37 | 0.00 | 74 | 1013.5 |
| 20260507073806 | 27 | 44 | 2.0 | 6.0 | 0.00 | 0.37 | 0.00 | 74 | 1013.5 |
| 20260507073305 | 25 | 95 | 2.0 | 9.0 | 0.00 | 0.37 | 0.00 | 74 | 1023.5 |
| 20260507072806 | 25 | 53 | 4.0 | 9.0 | 0.00 | 0.37 | 0.00 | 74 | 1013.5 |
| 20260507072308 | 25 | 53 | 5.0 | 7.0 | 0.00 | 0.37 | 0.00 | 74 | 1013.6 |
| 20260507071805 | 25 | 61 | 3.0 | 6.0 | 0.00 | 0.37 | 0.00 | 73 | 1019.1 |
| 20260507071306 | 27 | 60 | 4.0 | 8.0 | 0.00 | 0.37 | 0.00 | 72 | 1013.6 |
| 20260507070806 | 27 | 51 | 6.0 | 8.0 | 0.00 | 0.37 | 0.00 | 70 | 1020.2 |
| 20260507070306 | 28 | 53 | 4.0 | 10.0 | 0.00 | 0.37 | 0.00 | 73 | 1013.5 |
| 20260507065306 | 26 | 73 | 5.0 | 9.0 | 0.00 | 0.37 | 0.00 | 70 | 1013.5 |
| 20260507064806 | 27 | 42 | 6.0 | 9.0 | 0.00 | 0.37 | 0.00 | 71 | 1013.4 |
| 20260507064306 | 28 | 71 | 6.0 | 10.0 | 0.00 | 0.38 | 0.00 | 70 | 1023.8 |
| 20260507063806 | 26 | 57 | 6.0 | 10.0 | 0.00 | 0.38 | 0.00 | 73 | 1013.5 |
| 20260507063306 | 28 | 61 | 7.0 | 8.0 | 0.00 | 0.38 | 0.00 | 70 | 1013.6 |
| 20260507062306 | 28 | 46 | 7.0 | 13.0 | 0.00 | 0.38 | 0.00 | 69 | 1013.4 |
| 20260507061805 | 27 | 57 | 7.0 | 10.0 | 0.00 | 0.38 | 0.00 | 70 | 1013.5 |
| 20260507061306 | 27 | 28 | 7.0 | 13.0 | 0.00 | 0.38 | 0.00 | 72 | 1013.4 |
| 20260507060806 | 27 | 59 | 6.0 | 13.0 | 0.00 | 0.38 | 0.00 | 70 | 1013.5 |
| 20260507060306 | 28 | 60 | 7.0 | 10.0 | 0.00 | 0.38 | 0.00 | 71 | 1013.6 |
| 20260507055805 | 34 | 57 | 5.0 | 9.0 | 0.00 | 0.38 | 0.00 | 71 | 1013.6 |
| 20260507055306 | 27 | 62 | 5.0 | 8.0 | 0.00 | 0.39 | 0.00 | 72 | 1013.5 |
| 20260507054806 | 35 | 56 | 5.0 | 7.0 | 0.00 | 0.39 | 0.00 | 70 | 1013.4 |
| 20260507053806 | 35 | 54 | 5.0 | 8.0 | 0.00 | 0.39 | 0.00 | 69 | 1013.3 |
| 20260507053306 | 35 | 66 | 3.0 | 10.0 | 0.00 | 0.39 | 0.00 | 68 | 1019.2 |
| 20260507052805 | 35 | 59 | 8.0 | 12.0 | 0.00 | 0.39 | 0.00 | 67 | 1013.3 |
| 20260507052307 | 35 | 45 | 5.0 | 7.0 | 0.00 | 0.40 | 0.00 | 68 | 1013.3 |
| 20260507051806 | 35 | 69 | 6.0 | 12.0 | 0.00 | 0.40 | 0.00 | 67 | 1013.1 |
| 20260507051306 | 35 | 69 | 9.0 | 14.0 | 0.00 | 0.40 | 0.00 | 67 | 1013.2 |
| 20260507050806 | 35 | 73 | 6.0 | 9.0 | 0.00 | 0.40 | 0.00 | 69 | 1013.2 |
| 20260507050306 | 35 | 34 | 5.0 | 12.0 | 0.00 | 0.40 | 0.00 | 69 | 1013.1 |
| 20260507045805 | 30 | 63 | 6.0 | 12.0 | 0.00 | 0.40 | 0.40 | 69 | 1013.0 |
| 20260507045307 | 29 | 78 | 4.0 | 9.0 | 0.00 | 0.40 | 0.40 | 71 | 1012.9 |
| 20260507044806 | 30 | 46 | 4.0 | 9.0 | 0.00 | 0.40 | 0.40 | 71 | 1013.2 |
| 20260507044306 | 29 | 66 | 6.0 | 7.0 | 0.00 | 0.40 | 0.40 | 71 | 1012.9 |
| 20260507043806 | 31 | 58 | 4.0 | 6.0 | 0.00 | 0.40 | 0.40 | 59 | 1021.7 |
| 20260507043305 | 29 | 27 | 2.0 | 5.0 | 0.00 | 0.40 | 0.40 | 73 | 1012.9 |
| 20260507042806 | 31 | 53 | 3.0 | 5.0 | 0.00 | 0.40 | 0.40 | 73 | 1012.7 |
| 20260507042307 | 30 | 66 | 1.0 | 3.0 | 0.00 | 0.40 | 0.40 | 73 | 1012.8 |
| 20260507041806 | 31 | 66 | 2.0 | 5.0 | 0.00 | 0.40 | 0.40 | 72 | 1012.8 |
| 20260507041305 | 30 | 55 | 3.0 | 6.0 | 0.00 | 0.40 | 0.40 | 57 | 1023.0 |
| 20260507040806 | 33 | 55 | 3.0 | 5.0 | 0.00 | 0.40 | 0.40 | 72 | 1012.6 |
| 20260507040305 | 31 | 62 | 3.0 | 5.0 | 0.00 | 0.40 | 0.40 | 71 | 1012.6 |
| 20260507035806 | 33 | 51 | 1.0 | 3.0 | 0.00 | 0.40 | 0.40 | 72 | 1012.7 |
| 20260507035306 | 32 | 29 | 1.0 | 3.0 | 0.00 | 0.40 | 0.40 | 70 | 1012.5 |
| 20260507034806 | 33 | 0 | 2.0 | 3.0 | 0.00 | 0.41 | 0.40 | 41 | 1020.6 |
| 20260507033806 | 34 | 336 | 1.0 | 3.0 | 0.00 | 0.41 | 0.40 | 67 | 1012.2 |
| 20260507033305 | 33 | 160 | 1.0 | 5.0 | 0.00 | 0.41 | 0.40 | 46 | 1018.8 |
| 20260507032806 | 34 | 98 | 2.0 | 3.0 | 0.00 | 0.41 | 0.40 | 65 | 1012.1 |
| 20260507031806 | 35 | 56 | 2.0 | 3.0 | 0.00 | 0.41 | 0.40 | 63 | 1011.9 |
| 20260507031305 | 34 | 254 | 1.0 | 2.0 | 0.00 | 0.41 | 0.40 | 61 | 1011.8 |
| 20260507030805 | 33 | 59 | 2.0 | 5.0 | 0.00 | 0.41 | 0.40 | 62 | 1011.6 |
| 20260507030305 | 35 | 110 | 2.0 | 6.0 | 0.00 | 0.41 | 0.40 | 54 | 1011.7 |
| 20260507025805 | 34 | 62 | 4.0 | 6.0 | 0.00 | 0.41 | 0.40 | 60 | 1011.5 |
| 20260507025307 | 35 | 336 | 2.0 | 5.0 | 0.00 | 0.41 | 0.40 | 53 | 1014.3 |
| 20260507024805 | 35 | 191 | 1.0 | 12.0 | 0.00 | 0.41 | 0.40 | 57 | 1011.3 |
| 20260507024305 | 37 | 90 | 2.0 | 9.0 | 0.00 | 0.41 | 0.40 | 57 | 1011.2 |
| 20260507023806 | 35 | 212 | 5.0 | 10.0 | 0.00 | 0.41 | 0.40 | 39 | 1017.5 |
| 20260507023306 | 34 | 229 | 4.0 | 10.0 | 0.00 | 0.41 | 0.40 | 60 | 1011.1 |
| 20260507022806 | 36 | 165 | 3.0 | 10.0 | 0.00 | 0.41 | 0.40 | 53 | 1010.9 |
| 20260507021806 | 36 | 251 | 1.0 | 3.0 | 0.00 | 0.41 | 0.40 | 64 | 1010.7 |
| 20260507021306 | 34 | 316 | 2.0 | 5.0 | 0.00 | 0.41 | 0.40 | 65 | 1010.7 |
| 20260507020806 | 36 | 286 | 2.0 | 3.0 | 0.00 | 0.41 | 0.40 | 65 | 1010.5 |
| 20260507020306 | 34 | 216 | 1.0 | 5.0 | 0.00 | 0.41 | 0.40 | 65 | 1010.5 |
| 20260507015806 | 34 | 37 | 3.0 | 5.0 | 0.00 | 0.41 | 0.40 | 32 | 1018.3 |
| 20260507014807 | 34 | 223 | 3.0 | 7.0 | 0.00 | 0.42 | 0.40 | 67 | 1010.4 |
| 20260507014306 | 35 | 297 | 0.0 | 5.0 | 0.00 | 0.42 | 0.40 | 65 | 1010.3 |
| 20260507013806 | 35 | 145 | 3.0 | 5.0 | 0.00 | 0.42 | 0.40 | 40 | 1016.2 |
| 20260507013305 | 50 | 293 | 1.0 | 3.0 | 0.00 | 0.42 | 0.40 | 65 | 1010.1 |